Skip Page Navigation
NASA JPL Caltech
NASA Logo - Jet Propulsion Laboratory + View the NASA Portal
+ Center for Near-Earth Object Studies
JPL Home Earth Solar System Stars & Galaxies Technology
JPL Solar System Dynamics
BODIES ORBITS EPHEMERIDES TOOLS PHYSICAL DATA DISCOVERY FAQ SITE MAP
JPL Small-Body Database Browser
Search: [ help ]  
120230 (2004 FQ63)
Classification: Main-belt Asteroid          SPK-ID: 2120230
Ephemeris | Orbit Diagram | Orbital Elements | Mission Design | Physical Parameters | Discovery Circumstances ]

[ show orbit diagram ]
Orbital Elements at Epoch 2459000.5 (2020-May-31.0) TDB
Reference: JPL 20 (heliocentric ecliptic J2000)
 Element Value Uncertainty (1-sigma)   Units 
e .1448840931525032 3.298e-08  
a 2.181080461004425 1.0932e-08 au
q 1.865076596319156 7.3086e-08 au
i 3.913282651767492 3.8384e-06 deg
node 111.5826399348745 6.276e-05 deg
peri 216.1700016695645 6.5637e-05 deg
M 245.479649520286 2.2631e-05 deg
tp 2459374.770955008910
(2021-Jun-09.27095501)
7.5737e-05 TDB
period 1176.537997297473
3.22
8.8458e-06
2.422e-08
d
yr
n .3059824679074759 2.3005e-09 deg/d
Q 2.497084325689695 1.2516e-08 au
  Orbit Determination Parameters
   # obs. used (total)      453  
   data-arc span      7437 days (20.36 yr)  
   first obs. used      2000-01-05  
   last obs. used      2020-05-16  
   planetary ephem.      DE431  
   SB-pert. ephem.      SB431-N16  
   condition code      0  
   norm. resid. RMS      .5283  
   source      ORB  
   producer      Otto Matic  
   solution date      2020-Nov-12 17:58:37  

Additional Information
 Earth MOID = .855072 au 
 Jupiter MOID = 2.80943 au 
 T_jup = 3.664 
[ hide covariance matrix ]
Orbital Elements at Epoch 2457341.5 (2015-Nov-15.0) TDB
Reference: JPL 20 (heliocentric ecliptic J2000)
 Element Value Uncertainty (1-sigma)   Units 
e .1452134436814891 3.3066e-08  
q 1.864354883277562 7.3325e-08 au
tp 2457020.256888456186
(2014-Dec-28.75688846)
6.538e-05 TDB
node 111.6292689046982 6.2736e-05 deg
peri 215.8745717209124 6.5585e-05 deg
i 3.913802729293338 3.839e-06 deg
  Orbit Determination Parameters
   # obs. used (total)      453  
   data-arc span      7437 days (20.36 yr)  
   first obs. used      2000-01-05  
   last obs. used      2020-05-16  
   planetary ephem.      DE431  
   SB-pert. ephem.      SB431-N16  
   condition code      0  
   norm. resid. RMS      .5283  
   source      ORB  
   producer      Otto Matic  
   solution date      2020-Nov-12 17:58:37  

Additional Information
 Jupiter MOID = 2.80943 au 
 T_jup = 3.664 
Orbit Covariance (6×6)
  e q tp node peri i
e 1.093389576919187E-15 -2.404824576317753E-15 -3.227023025558548E-13 -2.228836226588244E-15 -6.057272486282781E-14 7.643689036078095E-16
q -2.404824576317753E-15 5.376612333487911E-15 9.948743065232374E-13 3.521564506579316E-15 2.204503135681951E-13 -1.261288351555648E-15
tp -3.227023025558548E-13 9.948743065232374E-13 4.274480477795763E-9 -1.268563170111588E-11 1.266915242341335E-9 3.160493220066839E-12
node -2.228836226588244E-15 3.521564506579316E-15 -1.268563170111588E-11 3.935782845293896E-9 -3.92996826220334E-9 -4.950291288135947E-11
peri -6.057272486282781E-14 2.204503135681951E-13 1.266915242341335E-9 -3.92996826220334E-9 4.301396862582521E-9 5.034000226561254E-11
i 7.643689036078095E-16 -1.261288351555648E-15 3.160493220066839E-12 -4.950291288135947E-11 5.034000226561254E-11 1.473767055098121E-11

Ephemeris | Orbit Diagram | Orbital Elements | Mission Design | Physical Parameters | Discovery Circumstances ]

Physical Parameter Table
Parameter Symbol Value Units Sigma Reference Notes
absolute magnitude H 16.7   n/a MPO469246  

120230 (2004 FQ63)          Discovered 2004-Mar-19 by LINEAR at Socorro
Reference: 20051116/Numbers.arcLast Updated: 2005-11-21

Alternate Designations
 2004 FQ63 = 2000 AQ251 
Ephemeris | Orbit Diagram | Orbital Elements | Mission Design | Physical Parameters | Discovery Circumstances ]
ABOUT SSD CREDITS/AWARDS PRIVACY/COPYRIGHT GLOSSARY LINKS
FirstGov 2020-Nov-24 21:46 UT
(server date/time)  
NASA Home Page
Site Manager:   Ryan S. Park
Webmaster  Alan B. Chamberlin